When you browse on this site, cookies collect data to enhance your experience and personalize the content and advertising you see.
Visit our Privacy Policy to learn more. By continuing to use the site, you agree to this use of cookies and data.
  • Em Portugal
  • Lista de países
  • Para 7 dias
  • Temperatura da água
  • Mapas de satélite
  • Mapa do tempo
  • Widgets de tempo
  • user-avatar
    Iniciar Sessão

    Previsão horária em Zhmerynka

    Hoje, 16 Janeiro, Quarta-feira

    Tempo Temperatura Precipitação Vento Pressão Humidade
    00:00 -11°C° 0 mm 5 m/s 723 mmHg 90%
    01:00 -10°C° 0 mm 4 m/s 723 mmHg 90%
    02:00 -10°C° 0 mm 3 m/s 723 mmHg 92%
    03:00 -10°C° 0.1 mm 3 m/s 722 mmHg 92%
    04:00 -10°C° 0.1 mm 4 m/s 721 mmHg 93%
    05:00 -10°C° 0.1 mm 4 m/s 721 mmHg 94%
    06:00 -8°C° 0.7 mm 5 m/s 721 mmHg 94%
    07:00 -7°C° 0.7 mm 5 m/s 720 mmHg 94%
    08:00 -6°C° 0 mm 6 m/s 720 mmHg 94%
    09:00 -5°C° 0.7 mm 6 m/s 720 mmHg 93%
    10:00 -4°C° 0.7 mm 7 m/s 721 mmHg 91%
    11:00 -4°C° 0.7 mm 8 m/s 722 mmHg 89%
    12:00 -4°C° 0 mm 7 m/s 723 mmHg 89%
    13:00 -6°C° 0 mm 7 m/s 724 mmHg 88%
    14:00 -5°C° 0 mm 6 m/s 725 mmHg 87%
    15:00 -6°C° 0 mm 5 m/s 726 mmHg 88%
    16:00 -5°C° 0 mm 4 m/s 727 mmHg 88%
    17:00 -6°C° 0 mm 3 m/s 728 mmHg 89%
    18:00 -7°C° 0 mm 3 m/s 728 mmHg 90%
    19:00 -8°C° 0 mm 2 m/s 728 mmHg 90%
    20:00 -9°C° 0 mm 2 m/s 729 mmHg 91%
    21:00 -9°C° 0 mm 2 m/s 729 mmHg 90%
    22:00 -9°C° 0 mm 2 m/s 729 mmHg 90%
    23:00 -9°C° 0 mm 1 m/s 730 mmHg 89%

    Amanhã, 17 Janeiro, Quinta-feira

    Tempo Temperatura Precipitação Vento Pressão Humidade
    00:00 -9°C° 0 mm 2 m/s 730 mmHg 90%
    01:00 -8°C° 0 mm 2 m/s 730 mmHg 91%
    02:00 -7°C° 0 mm 3 m/s 730 mmHg 92%
    03:00 -7°C° 0 mm 3 m/s 730 mmHg 93%
    04:00 -7°C° 0 mm 4 m/s 730 mmHg 94%
    05:00 -5°C° 0 mm 4 m/s 730 mmHg 95%
    06:00 -5°C° 0 mm 4 m/s 730 mmHg 95%
    07:00 -6°C° 0 mm 5 m/s 730 mmHg 95%
    08:00 -6°C° 0 mm 5 m/s 730 mmHg 95%
    09:00 -6°C° 0 mm 5 m/s 729 mmHg 93%
    10:00 -6°C° 0 mm 6 m/s 729 mmHg 92%
    11:00 -5°C° 0 mm 6 m/s 729 mmHg 91%
    12:00 -5°C° 0 mm 6 m/s 729 mmHg 91%
    13:00 -4°C° 0 mm 5 m/s 728 mmHg 91%
    14:00 -4°C° 0 mm 5 m/s 728 mmHg 91%
    15:00 -4°C° 0 mm 5 m/s 728 mmHg 91%
    16:00 -5°C° 0 mm 5 m/s 728 mmHg 91%
    17:00 -5°C° 0 mm 5 m/s 728 mmHg 92%
    18:00 -4°C° 0 mm 4 m/s 728 mmHg 91%
    19:00 -4°C° 0 mm 4 m/s 728 mmHg 91%
    20:00 -4°C° 0 mm 4 m/s 728 mmHg 90%
    21:00 -4°C° 0 mm 4 m/s 728 mmHg 90%
    22:00 -4°C° 0 mm 3 m/s 728 mmHg 90%
    23:00 -5°C° 0 mm 3 m/s 728 mmHg 89%

    Depois de amanhã, 18 Janeiro, Sexta-feira

    Tempo Temperatura Precipitação Vento Pressão Humidade
    00:00 -5°C° 0 mm 3 m/s 728 mmHg 89%
    01:00 -4°C° 0 mm 3 m/s 728 mmHg 88%
    02:00 -4°C° 0 mm 3 m/s 728 mmHg 87%
    03:00 -4°C° 0 mm 3 m/s 728 mmHg 87%
    04:00 -4°C° 0 mm 3 m/s 728 mmHg 86%
    05:00 -4°C° 0 mm 4 m/s 727 mmHg 86%
    06:00 -3°C° 0.1 mm 4 m/s 727 mmHg 87%
    07:00 -3°C° 0.1 mm 4 m/s 728 mmHg 87%
    08:00 -2°C° 0.1 mm 4 m/s 728 mmHg 88%
    09:00 -2°C° 0 mm 4 m/s 728 mmHg 90%
    10:00 0°C° 0 mm 3 m/s 728 mmHg 92%
    11:00 0°C° 0 mm 3 m/s 728 mmHg 94%
    12:00 0°C° 0.1 mm 3 m/s 729 mmHg 94%
    13:00 -1°C° 0.1 mm 4 m/s 729 mmHg 95%
    14:00 -1°C° 0.1 mm 4 m/s 730 mmHg 95%
    15:00 -2°C° 0.1 mm 4 m/s 730 mmHg 92%
    16:00 -4°C° 0.1 mm 5 m/s 731 mmHg 89%
    17:00 -4°C° 0.1 mm 5 m/s 732 mmHg 85%
    18:00 -5°C° 0 mm 5 m/s 733 mmHg 85%
    19:00 -7°C° 0 mm 5 m/s 734 mmHg 85%
    20:00 -8°C° 0 mm 5 m/s 734 mmHg 85%
    21:00 -8°C° 0 mm 4 m/s 735 mmHg 86%
    22:00 -9°C° 0 mm 4 m/s 736 mmHg 88%
    23:00 -9°C° 0 mm 4 m/s 736 mmHg 89%

    19 Janeiro, Sábado

    Tempo Temperatura Precipitação Vento Pressão Humidade
    00:00 -9°C° 0 mm 3 m/s 737 mmHg 90%
    01:00 -9°C° 0 mm 3 m/s 737 mmHg 91%
    02:00 -10°C° 0 mm 3 m/s 737 mmHg 92%
    03:00 -10°C° 0 mm 3 m/s 737 mmHg 91%
    04:00 -9°C° 0 mm 2 m/s 737 mmHg 91%
    05:00 -9°C° 0 mm 2 m/s 738 mmHg 90%
    06:00 -9°C° 0 mm 2 m/s 738 mmHg 89%
    07:00 -10°C° 0 mm 2 m/s 738 mmHg 89%
    08:00 -10°C° 0 mm 2 m/s 738 mmHg 88%
    09:00 -9°C° 0 mm 2 m/s 738 mmHg 89%
    10:00 -8°C° 0 mm 2 m/s 739 mmHg 89%
    11:00 -7°C° 0 mm 2 m/s 739 mmHg 90%
    12:00 -7°C° 0 mm 2 m/s 738 mmHg 91%
    13:00 -6°C° 0 mm 2 m/s 738 mmHg 91%
    14:00 -6°C° 0 mm 2 m/s 738 mmHg 92%
    15:00 -7°C° 0 mm 2 m/s 737 mmHg 92%
    16:00 -8°C° 0 mm 2 m/s 737 mmHg 91%
    17:00 -9°C° 0 mm 2 m/s 737 mmHg 91%
    18:00 -9°C° 0 mm 2 m/s 737 mmHg 90%
    19:00 -9°C° 0 mm 2 m/s 737 mmHg 90%
    20:00 -10°C° 0 mm 2 m/s 737 mmHg 89%
    21:00 -10°C° 0 mm 2 m/s 737 mmHg 90%
    22:00 -10°C° 0 mm 2 m/s 736 mmHg 91%
    23:00 -10°C° 0 mm 2 m/s 736 mmHg 92%

    20 Janeiro, Domingo

    Tempo Temperatura Precipitação Vento Pressão Humidade
    00:00 -10°C° 0 mm 2 m/s 736 mmHg 93%
    01:00 -10°C° 0 mm 2 m/s 736 mmHg 95%
    02:00 -10°C° 0 mm 2 m/s 735 mmHg 96%
    03:00 -10°C° 0 mm 2 m/s 735 mmHg 96%
    04:00 -10°C° 0 mm 2 m/s 735 mmHg 96%
    05:00 -9°C° 0 mm 2 m/s 734 mmHg 96%
    06:00 -9°C° 0 mm 2 m/s 734 mmHg 97%
    07:00 -8°C° 0 mm 2 m/s 734 mmHg 97%
    08:00 -6°C° 0 mm 1 m/s 734 mmHg 97%
    09:00 -6°C° 0.4 mm 1 m/s 733 mmHg 97%
    10:00 -4°C° 0.4 mm 1 m/s 733 mmHg 97%
    11:00 -3°C° 0.4 mm 1 m/s 733 mmHg 97%
    12:00 -3°C° 0.4 mm 1 m/s 733 mmHg 96%
    13:00 -2°C° 0.4 mm 1 m/s 732 mmHg 96%
    14:00 -2°C° 0.4 mm 1 m/s 732 mmHg 96%
    15:00 -2°C° 0.2 mm 1 m/s 732 mmHg 96%
    16:00 -2°C° 0.2 mm 1 m/s 731 mmHg 97%
    17:00 -2°C° 0.2 mm 1 m/s 731 mmHg 97%
    18:00 -2°C° 0.2 mm 1 m/s 731 mmHg 97%
    19:00 -2°C° 0.2 mm 1 m/s 731 mmHg 97%
    20:00 -4°C° 0.2 mm 2 m/s 731 mmHg 97%
    21:00 -5°C° 0.1 mm 2 m/s 731 mmHg 97%
    22:00 -5°C° 0.1 mm 2 m/s 731 mmHg 97%
    23:00 -6°C° 0.1 mm 2 m/s 731 mmHg 97%

    21 Janeiro, Segunda-feira

    Tempo Temperatura Precipitação Vento Pressão Humidade
    00:00 -6°C° 0.1 mm 2 m/s 731 mmHg 96%
    01:00 -7°C° 0.1 mm 2 m/s 731 mmHg 96%
    02:00 -8°C° 0.1 mm 3 m/s 731 mmHg 96%
    03:00 -9°C° 0 mm 3 m/s 731 mmHg 95%
    04:00 -10°C° 0 mm 3 m/s 731 mmHg 94%
    05:00 -12°C° 0 mm 3 m/s 731 mmHg 93%
    06:00 -13°C° 0 mm 3 m/s 732 mmHg 92%
    07:00 -13°C° 0 mm 3 m/s 732 mmHg 91%
    08:00 -14°C° 0 mm 3 m/s 732 mmHg 90%
    09:00 -13°C° 0 mm 3 m/s 732 mmHg 90%
    10:00 -12°C° 0 mm 4 m/s 733 mmHg 90%
    11:00 -11°C° 0 mm 4 m/s 733 mmHg 89%
    12:00 -10°C° 0 mm 4 m/s 733 mmHg 89%
    13:00 -10°C° 0 mm 5 m/s 734 mmHg 89%
    14:00 -8°C° 0 mm 5 m/s 734 mmHg 89%
    15:00 -8°C° 0 mm 5 m/s 734 mmHg 87%
    16:00 -8°C° 0 mm 5 m/s 735 mmHg 86%
    17:00 -8°C° 0 mm 5 m/s 735 mmHg 84%
    18:00 -9°C° 0 mm 4 m/s 736 mmHg 86%
    19:00 -9°C° 0 mm 4 m/s 736 mmHg 87%
    20:00 -9°C° 0 mm 4 m/s 736 mmHg 88%
    21:00 -10°C° 0 mm 4 m/s 737 mmHg 89%
    22:00 -11°C° 0 mm 4 m/s 737 mmHg 90%
    23:00 -10°C° 0 mm 3 m/s 738 mmHg 91%
    Mostrar mais